Flag for Russia Weather past 2 weeks in Kazan, Russia

Now
45 °F

Clear.


Feels Like: 43 °F
Forecast: 46 / 66 °F
Wind: 3 mph from Southeast

Location: Kazan'

Current Time: Sep 22, 2014 at 5:10:41 AM

Latest Report: Sep 22, 2014 at 4:30 AM


Visibility: 10 mi

Pressure: 30.12 "Hg

Humidity: 93%

Dew point: 43 °F

Location of KazanLocation

Historic Weather in Kazan — Graph

°F

Kazan temperature yesterday

Maximum temperature yesterday: 68 °F (at 2:00 PM)
Minimum temperature yesterday: 45 °F (at 6:00 AM)
Average temperature yesterday: 56 °F

Past Weeks' High & Low Weather Summary

 TemperatureHumidityPressure
High72 °F (Sep 12, 4:30 PM)100% (Sep 7, 4:00 AM)30.39 "Hg (Sep 7, 4:00 AM)
Low36 °F (Sep 17, 4:00 AM)39% (Sep 9, 2:00 PM)29.92 "Hg (Sep 16, 12:00 PM)
Average53 °F74%30.20 "Hg
* Reported Sep 7 4:00 AM — Sep 22 4:00 AM, Kazan, Weather by CustomWeather, © 2014

Note: Actual official high and low records may vary slightly from our data, if they occured in-between our weather recording intervals... More about our weather records

Advertising

Kazan weather history for previous 24 hours

 ConditionsComfort  
Time TempWeatherWind HumidityBarometerVisibility
4:00 AM
Sep 22
43 °FClear.3 mph100%30.12 "Hg10 mi
3:30 AM45 °FClear.3 mph93%30.12 "Hg10 mi
3:00 AM46 °FClear.No wind87%30.12 "Hg10 mi
2:30 AM46 °FClear.No wind82%30.12 "Hg10 mi
2:00 AM46 °FClear.3 mph87%30.15 "Hg10 mi
1:30 AM45 °FClear.3 mph87%30.12 "Hg10 mi
1:00 AM48 °FClear.3 mph82%30.12 "Hg10 mi
12:30 AM46 °FClear.No wind82%30.12 "Hg10 mi
12:00 AM46 °FClear.No wind87%30.12 "Hg10 mi
11:30 PM
Sep 21
48 °FClear.No wind87%30.12 "Hg10 mi
11:00 PM50 °FClear.No wind76%30.12 "Hg10 mi
10:30 PM50 °FClear.3 mph76%30.12 "Hg10 mi
10:00 PM50 °FClear.3 mph82%30.12 "Hg10 mi
9:30 PM50 °FClear.3 mph76%30.12 "Hg10 mi
9:00 PM54 °FClear.3 mph72%30.12 "Hg10 mi
8:30 PM52 °FClear.3 mph77%30.12 "Hg10 mi
8:00 PM50 °FClear.3 mph82%30.12 "Hg10 mi
7:30 PM57 °FSunny.3 mph63%30.12 "Hg10 mi
7:00 PM59 °FSunny.3 mph63%30.12 "Hg10 mi
6:00 PM64 °FSunny.6 mph49%30.12 "Hg10 mi
5:00 PM68 °FSunny.8 mph40%30.12 "Hg10 mi
4:30 PM68 °FSunny.6 mph40%30.12 "Hg10 mi
4:00 PM68 °FSunny.10 mph40%30.12 "Hg10 mi
3:30 PM68 °FSunny.8 mph43%30.12 "Hg10 mi
3:00 PM68 °FSunny.8 mph43%30.12 "Hg10 mi
2:30 PM66 °FSunny.8 mph43%30.15 "Hg10 mi
2:00 PM68 °FSunny.10 mph46%30.15 "Hg10 mi
1:30 PM66 °FSunny.10 mph46%30.15 "Hg10 mi
1:00 PM66 °FScattered clouds.8 mph46%30.15 "HgN/A
12:30 PM66 °FScattered clouds.10 mph49%30.15 "HgN/A
12:00 PM66 °FSunny.6 mph49%30.15 "Hg10 mi
11:30 AM64 °FSunny.3 mph56%30.15 "Hg10 mi
11:00 AM63 °FSunny.3 mph59%30.15 "Hg10 mi
10:30 AM61 °FSunny.3 mph63%30.18 "Hg10 mi
10:00 AM61 °FSunny.3 mph63%30.18 "Hg10 mi
9:30 AM57 °FSunny.3 mph72%30.18 "Hg10 mi
9:00 AM55 °FSunny.3 mph77%30.18 "Hg10 mi
8:30 AM54 °FSunny.3 mph77%30.15 "Hg10 mi
8:00 AM50 °FSunny.3 mph88%30.15 "Hg10 mi
7:30 AM48 °FFog.6 mph87%30.15 "Hg3 mi
7:00 AM46 °FFog.3 mph93%30.15 "Hg3 mi
6:30 AM46 °FFog.6 mph93%30.15 "Hg3 mi
6:00 AM45 °FFog.3 mph93%30.15 "Hg3 mi
5:30 AM46 °FFog.3 mph87%30.15 "Hg3 mi
5:00 AM48 °FClear.3 mph87%30.15 "Hg10 mi
Weather by CustomWeather, © 2014

See weather overviewHow to use our weather pages